Location: Newark
(51.0500°N, 12.4500°E)
Time: 13:21:49
(UTC+00:00)

Vanguard 1 - Pass Details

Date: 22 February 2020
Orbit: 649 x 3833 km, 34.2° (Epoch: 07 April)

Event Time Altitude Azimuth Distance (km) Brightness Sun altitude
Rises 05:54:23 0° 209° (SSW) 7,959 14.5 -3.3°
Reaches altitude 10° 06:01:20 10° 199° (SSW) 6,893 14.3 -2.2°
Maximum altitude 06:17:41 27° 152° (SSE) 4,907 14.3 0.2°
Drops below altitude 10° 06:29:57 10° 103° (ESE) 5,170 16.1 2.1°
Sets 06:34:05 0° 92° (E) 5,736 15.7 2.7°
